BREAKING NEWS: LeBron returning to Cleveland    Watch
 

Current Temps

Weather Temperatures Right Now
Weather Temperatures - Feels Like

Interactive Temperatures Map | Weather by Zip Code

National Weather Service Data
ASUS41 Bulletin

Most recent data in the last 24 hours

790 
ASUS41 KAKQ 111610  WSI PPS:111624
RWRAKQ

REGIONAL WEATHER ROUNDUP
NATIONAL WEATHER SERVICE WAKEFIELD VA
1200 PM EDT FRI JUL 11 2014

Note: "fair" indicates few or no clouds below 12,000 feet with no
significant weather and/or obstructions to visibility. * = Denotes
station may not report precipitation (e.g., rain,snow,etc.),
thunder or fog.

VAZ042-051-052>054-056-111700-
NORTHERN VIRGINIA
  
CITY           SKY/WX    TMP DP  RH WIND       PRES   REMARKS
WASH NATIONAL  MOSUNNY   83  66  56 E7        30.20S                  
DULLES         MOSUNNY   79  64  60 NE5       30.21S                  
FORT BELVOIR   DRIZZLE   81  67  60 VRB2      30.21S                  
QUANTICO       MOSUNNY   78  67  68 CALM      30.21S                  
FREDERICKSBRG* SUNNY     82  66  59 E7        30.19F                  
STAFFORD*      PTSUNNY   78  68  71 CALM      30.25S                  
WARRENTON      SUNNY     81  72  72 N6        30.21F                  
CULPEPER*      MOSUNNY  N/A N/A N/A N6        30.22S                  
MANASSAS*      SUNNY     77  70  78 NE3       30.21                   
LEESBURG*      SUNNY     81  66  61 NE3       30.23S                  
WINCHESTER     PTSUNNY   81  63  54 CALM      30.23S                  
$$

VAZ048-049-060>072-079>083-111700-
CENTRAL AND SOUTH CENTRAL VIRGINIA...AND NORTH CENTRAL NORTH CAROLINA
  
CITY           SKY/WX    TMP DP  RH WIND       PRES   REMARKS
RICHMOND       PTSUNNY   82  66  58 NE7       30.20S                  
CHESTERFIELD*  PTSUNNY   77  61  57 CALM      30.23S                  
HANOVER        MOSUNNY   78  67  68 CALM      30.22F                  
TAPPAHANNOCK*  PTSUNNY   83  64  53 N3        30.20S                  
CHARLOTTSVILLE MOSUNNY   80  66  62 E7        30.22S                  
ORANGE*        SUNNY     79  64  61 N6        30.23S                  
LOUISA*        PTSUNNY   81  66  61 E5        30.21S                  
FARMVILLE*     MOSUNNY   82  66  57 CALM      30.19S                  
SOUTH HILL*    CLOUDY    81  70  69 CALM      30.26S                  
ROANOKE RAPIDS CLOUDY    75  68  78 CALM      30.21R                  
RALEIGH        CLOUDY    76  67  73 CALM      30.21S                  
$$

VAZ088>098-111700-
SOUTHEAST VIRGINIA
  
CITY           SKY/WX    TMP DP  RH WIND       PRES   REMARKS
NORFOLK        PTSUNNY   79  68  69 NE7       30.18S                  
VIRGINIA BEACH CLOUDY    79  69  71 VRB5      30.17S                  
NORFOLK NAVAL  PTSUNNY   80  71  74 N7        30.20R                  
WEST POINT*    PTSUNNY   82  69  64 N5        30.21S                  
NEWPORT NEWS   PTSUNNY   83  70  64 VRB3      30.19S                  
LANGLEY AFB    PTSUNNY   80  73  79 NE6       30.18S                  
FORT EUSTIS    NOT AVBL                                               
WILLIAMSBURG*  PTSUNNY   82  73  74 CALM      30.20S                  
FRANKLIN*      CLOUDY    75  70  83 N3        30.20R                  
WAKEFIELD      CLOUDY    78  68  71 CALM      30.20S                  
$$

VAZ020-022-025-037-045-111700-
WESTERN AND SOUTHWEST VIRGINIA
  
CITY           SKY/WX    TMP DP  RH WIND       PRES   REMARKS
STAUNTON*      CLOUDY    68  63  84 CALM      30.28S                  
HOT SPRINGS VA SUNNY     67  59  75 E3        30.36S                  
LYNCHBURG      PTSUNNY   77  67  71 VRB3      30.24S                  
DANVILLE       PTSUNNY   80  67  64 E5        30.22S                  
MARTINSVILLE   PTSUNNY   81  68  65 N5        30.25F                  
ROANOKE        MOSUNNY   76  62  62 CALM      30.26F                  
BLACKSBURG     MOSUNNY   77  68  73 E7        30.30S                  
DUBLIN*        MOSUNNY   77  66  68 E3        30.29S                  
MARION*        MOSUNNY   80  61  52 CALM      30.31S                  
HILLSVILLE*    SUNNY     76  58  52 NE6       30.30S                  
RICHLANDS*     SUNNY     81  61  50 E3        30.30R                  
WISE*          SUNNY     79  52  38 N6        30.31S                  
ABINGDON*      SUNNY     82  59  46 CALM      30.27R                  
$$

MDZ021>025-VAZ099-100-111700-
SOUTHERN MARYLAND AND THE DELMARVA PENINSULA
  
CITY           SKY/WX    TMP DP  RH WIND       PRES   REMARKS
PATUXENT RIVER MOSUNNY   78  68  71 NE5       30.20S                  
BAY BRIDGE APT   N/A     77  66  69 N3        30.20F                  
LEONARDTOWN    PTSUNNY   77  64  65 CALM      30.22S                  
DOVER          PTSUNNY   81  72  74 VRB6      30.19R                  
GEORGETOWN     MOSUNNY   78  67  68 E9        30.20S                  
EASTON         PTSUNNY   81  72  74 NE6       30.24S                  
CAMBRIDGE      SUNNY     81  68  65 NE7       30.19F                  
SALISBURY      PTSUNNY   81  68  64 N10       30.19R                  
OCEAN CITY     CLOUDY    74  68  81 N9        30.20R                  
WALLOPS ISLAND CLOUDY    77  71  82 E13       30.19S                  
ACCOMACK*        N/A     79  68  69 NW7       30.18S                  
$$

NCZ012>017-030>032-111700-
EASTERN NORTH CAROLINA
  
CITY           SKY/WX    TMP DP  RH WIND       PRES   REMARKS
ELIZABETH CITY CLOUDY    80  71  74 N5        30.18S                  
AHOSKIE*       CLOUDY    75  68  79 CALM      30.20S                  
EDENTON*       CLOUDY    79  71  75 N6        30.18S                  
CURRITUCK*     CLOUDY    80  71  74 CALM      30.19R                  
KILL DEVIL HLS CLOUDY    76  73  88 NE3       30.16S                  
MANTEO         NOT AVBL                                               
CAPE HATTERAS  PTSUNNY   84  75  74 SW7       30.16F                  
GOLDSBORO      CLOUDY    79  73  82 CALM      30.17S                  
WASHINGTON     PTSUNNY  N/A N/A N/A E3        30.18F                  
GREENVILLE     CLOUDY    79  72  78 N5        30.19S                  
NEW BERN       CLOUDY    81  72  74 NW3       30.19S                  
WILMINGTON     CLOUDY    79  72  79 N5        30.18F                  
$$

VAZ048-111700-
ELSEWHERE
  
CITY           SKY/WX    TMP DP  RH WIND       PRES   REMARKS
HARRISBURG PA  MOSUNNY   81  63  54 VRB3      30.21S                  
BALTIMORE      PTSUNNY   80  65  59 NE6       30.20S                  
ANNAPOLIS      PTSUNNY   78  67  68 E6        30.20S                  
ANDREWS AFB    MOSUNNY   78  68  71 E6        30.21S                  
WILMINGTON DE  SUNNY     82  64  54 NE9       30.20S                  
PHILADELPHIA   MOSUNNY   85  63  47 NE9G16    30.20S                  
WILDWOOD NJ*   MOSUNNY   79  66  65 NE10      30.21S                  
ATLANTIC CITY  MOSUNNY   79  64  60 E14       30.20R                  
HENDERSON NC   CLOUDY    77  65  65 NE6       30.22S                  
GREENSBORO     CLOUDY    74  68  81 CALM      30.23S                  
ROCKY MOUNT    CLOUDY    79  70  74 NE7       30.19F                  
FAYETTEVILLE   CLOUDY    78  70  76 NE3       30.19S                  
CHARLOTTE      PTSUNNY   81  67  62 SE8       30.21S                  
$$

VAZ100-111700-
MARINE
  
STATION/POSITION TIME  TEMP    WIND        PRES    WAVE   SWELL
                       AIR SEA DIR/SP/G            HT/PER HT/PER
                 (UTC) (F)     (DEG/KT/KT) (MB)    (FT/S) (FT/S)
44066 TX TWR #4  1600   70 70   20/  8/ 10 1021.5S   2/ 7   2/ 7
CAPE MAY NJ      1600   77 69   90/  6/  9 1022.3S
LEWES DE         1600   71 69   40/  4/  6 1022.1S
15NM E FENWICK I 1600   72 73              1022.2R   3/ 6
OCEAN-CITY-INLET 1600   72 67   30/  3/  7 1022.2S
WACHAPREAGUE VA  1600   74 77   70/  8/ 11 1021.9F
THOMAS POINT MD  1600   74 79   30/  4/  5 1023.4R
GOOSES REEF MD   1600   74      10/  6/  6 1023.4S
COVE POINT MD    1600   74     350/  7/  8 1022.7R
SOLOMONS ISLAND  1600      79                N/A
BISHOPS HEAD MD  1600   77 77   10/  5/  7 1022.3S
PINEY POINT MD   1600           10/  5/  6   N/A
POTOMAC MD       1600   75      50/  8/ 10 1022.1R
CAMBRIDGE MD     1600   76 80   40/  5/  9 1022.2R
LEWISETTA VA     1600   76 80   70/  6/  7 1022.5S
RAPPAHANNOCK LGT 1600           20/ 12/ 12 1022.6F
STINGRAY PT      1600   75      20/ 10/ 12 1021.5F
YORK RVR RNG VA  1600   79      80/  2/  3 1021.6S
YORKTOWN VA      1600   78 79  160/  2/  3 1021.8F
JAMESTOWN VA     1600   74     230/  4/  6   N/A
DOMINION TERM VA 1600   76     300/  3/  4 1022.2S
KIPTOPEKE VA     1600      79  320/  6/  7   N/A
CHES BAY BRIDGE  1600   76 74   10/  2/  4 1021.6R
CAPE HENRY VA    1600   76      20/  4/  5 1021.0R
WILLOUBY STN VA  1600   81      70/  6/  7 1021.5R
S CRANEY ISL VA  1600          340/  5/  6 1022.1S
CAPE HENRY BUOY  1600      78                N/A     2/ 6
1ST LANDING BUOY 1600   77      10/  2/  4 1021.8R
CAPE CHARLES BUO 1600      73                N/A     2/ 6
OFFSHORE WE BUOY 1600      76                N/A     2/ 7
64NM E OF VA BCH 1600   75 77  300/  4/  4 1021.5R   2/ 6   2/ 6
DUCK PIER NC     1600   72 64   20/  7/  9 1020.9F
44056 DUCK FRF   1600                        N/A     2/10
OREGON INLET NC  1600   80 82  260/  3/  4 1021.5R
HATTERAS NC      1600   81 82  230/  8/ 11 1021.7F
DIAMOND SHLS NC  1600          VRB 10/ 10  1021.4F   3/ 6   2/ 6
CAPE LOOKOUT NC  1500   80     300/  2/  3 1021.6R
$$



ASUS41 Bulletin

Most recent data in the last 24 hours

659 
ASUS41 KLWX 111610  WSI PPS:111623
RWRLWX

REGIONAL WEATHER ROUNDUP
NATIONAL WEATHER SERVICE BALTIMORE MD/WASHINGTON DC
1200 PM EDT FRI JUL 11 2014

Note: "FAIR" indicates few or no clouds below 12,000 feet
with no significant weather and/or obstructions to visibility.
 TC=TEMPERATURE CELSIUS

 * =Non NWS site. Station does not report precipitation (e.g. rain,
    snow, etc.), thunder, or fog.

DCZ001-MDZ009-015-VAZ040>042-051-053>054-111700-
WASHINGTON METRO
  
CITY           SKY/WX    TMP DP  RH WIND       PRES   REMARKS
WASHINGTON NAT MOSUNNY   83  66  56 E7        30.20S                  
DULLES         MOSUNNY   79  64  60 NE5       30.21S                  
ANDREWS AFB    MOSUNNY   78  68  71 E6        30.21S                  
FT BELVOIR     DRIZZLE   81  67  60 VRB2      30.21S                  
QUANTICO       MOSUNNY   78  67  68 CALM      30.21S                  
COLLEGE PARK*  PTSUNNY   79  68  69 N3        30.20S                  
LEESBURG*      SUNNY     81  66  61 NE3       30.23S                  
MANASSAS*      SUNNY     77  70  78 NE3       30.21                   
GAITHERSBURG*  SUNNY     79  66  65 CALM      30.25F                  

$$

MDZ006>007-011-014-111700-
BALTIMORE METRO
  
CITY           SKY/WX    TMP DP  RH WIND       PRES   REMARKS
BWI AIRPORT    PTSUNNY   80  65  59 NE6       30.20S                  
MD SCIENCE CTR   N/A     81  66  60 MISG      30.19F                  
MARTIN STATE   MOSUNNY   81  70  69 NE6       30.21F                  
ANNAPOLIS      PTSUNNY   78  67  68 E6        30.20S                  
FORT MEADE*    MOSUNNY   79  64  61 E5        30.23S                  

$$

MDZ012-015-019>023-111700-
MARYLAND EASTERN SHORE
  
CITY           SKY/WX    TMP DP  RH WIND       PRES   REMARKS
OCEAN CITY     CLOUDY    74  68  81 N9        30.20R                  
SALISBURY      PTSUNNY   81  68  64 N10       30.19R                  
BAY BRIDGE AP*   N/A     77  66  69 N3        30.20F                  
CAMBRIDGE*     SUNNY     81  68  65 NE7       30.19F                  
EASTON*        PTSUNNY   81  72  74 NE6       30.24S                  

$$

MDZ017>025-111700-
SOUTHERN MARYLAND
  
CITY           SKY/WX    TMP DP  RH WIND       PRES   REMARKS
PATUXENT RIVER MOSUNNY   78  68  71 NE5       30.20S                  
ST INIGOES     MOSUNNY   79  67  66 NE7       30.19S                  
LEONARDTOWN*   PTSUNNY   77  64  65 CALM      30.22S                  

$$

MDZ003>005-111700-
NORTH CENTRAL MARYLAND
  
CITY           SKY/WX    TMP DP  RH WIND       PRES   REMARKS
FREDERICK*     MOSUNNY   81  70  69 N3        30.24S                  
HAGERSTOWN APT MOSUNNY   78  64  61 VRB3      30.23S                  
WESTMINSTER*   PTSUNNY   79  66  65 CALM      30.23S                  

$$

MDZ501>502-111700-
WESTERN MARYLAND
  
CITY           SKY/WX    TMP DP  RH WIND       PRES   REMARKS
OAKLAND*       CLOUDY    70  52  52 CALM      30.31S                  
CUMBERLAND*    MOSUNNY   77  66  69 SE5       30.29F                  

$$

VAZ025>031-111700-
SHENANDOAH VALLEY
  
CITY           SKY/WX    TMP DP  RH WIND       PRES   REMARKS
WINCHESTER*    PTSUNNY   81  63  54 CALM      30.23S                  
STAUNTON*      CLOUDY    68  63  84 CALM      30.28S                  

$$

WVZ021-048>050-054>055-111700-
EASTERN WEST VIRGINIA PANHANDLE
  
CITY           SKY/WX    TMP DP  RH WIND       PRES   REMARKS
MARTINSBURG    SUNNY     80  59  48 CALM      30.23S                  
PETERSBURG*    CLOUDY    67  58  73 CALM      30.27F                  

$$

VAZ036>039-050-111700-
CENTRAL FOOTHILLS
  
CITY           SKY/WX    TMP DP  RH WIND       PRES   REMARKS
CHARLOTTESVILL MOSUNNY   80  66  62 E7        30.22S                  
ORANGE*        SUNNY     79  64  61 N6        30.23S                  

$$

VAZ055>057-111700-
NORTH AND CENTRAL PIEDMONT
  
CITY           SKY/WX    TMP DP  RH WIND       PRES   REMARKS
FREDERICKSBRG* SUNNY     82  66  59 E7        30.19F                  
STAFFORD*      PTSUNNY   78  68  71 CALM      30.25S                  

$$

NCZ024-NYZ072-PAZ021-071-VAZ022-071-111700-
OTHER REGIONAL OBSERVATIONS
  
CITY           SKY/WX    TMP DP  RH WIND       PRES   REMARKS
NEW YORK CITY  SUNNY     82  53  36 VRB5      30.23S                  
PHILADELPHIA   MOSUNNY   85  63  47 NE9G16    30.20S                  
PITTSBURGH     MOSUNNY   78  63  59 CALM      30.22F                  
ROANOKE        MOSUNNY   76  62  62 CALM      30.26F                  
RICHMOND       PTSUNNY   82  66  58 NE7       30.20S                  
RALEIGH        CLOUDY    76  67  73 CALM      30.21S                  

$$

ANZ530>537-111700-
MARINE OBSERVATIONS
  
STATION/POSITION TIME  TEMP    WIND        PRES
                       AIR SEA DIR/SP/G
                 (UTC) (F)     (DEG/KT/KT) (MB)
THOMAS PT LIGHT  1600   74 79   30/  4/  5 1023.4R
BALT KEY BRIDGE  1600   78      90/  4/  6 1022.5S
COVE POINT       1600   74     350/  8/  9 1022.6S
LEWISETTA        1600   76 80   70/  6/  7 1022.4F
SOLOMONS ISLAND  1600      79                N/A
PINEY POINT      1600           10/  5/  5   N/A

$$



Weather Maps

LOCAL DOPPLER RADAR

LOCAL FORECAST

METRO ZONE WEATHER

REGIONAL WEATHER

EASTERN WEATHER

NATIONAL WEATHER

SEVERE WEATHER

Weather Cams
Topper Shutt Weather Blog
Howard Bernstein Weather Blog
Erica Grow Weather Blog
Weather Photos
Get automated phone alerts when severe weather is in your area. Sign up for the WUSA9 First Alert Weather Call.